• Join FlightAware (Why Join?)
  • Login
  • US Flag 
02:20AM EST


 

Airport Tracker/Info


-or-


 

Live Flight TrackerFlight Track Log ✈ BAW747 ✈ 20-Aug-2013 ✈ ENZV / SVG - EGLL / LHR

Flight Track Log - Related Links

Times and Time Zones

All times are in EDT time to prevent confusion due to time zone crossing. See the BAW747 flight status page for this flight to view local times or setup timezone preferences in your user account.

Time Position Orientation Groundspeed Altitude Reporting Facility
EDT Latitude Longitude Course Direction KTS MPH feet Rate Location/Type
02:30PM 58.8890 5.6370 90° East 78 90  Level FlightAware
02:31PM 58.8710 5.6380 178° South 143 165 300 1,380 Climbing FlightAware
02:31PM 58.8560 5.6370 182° South 148 170 1,200 2,100 Climbing FlightAware
02:32PM 58.8410 5.6360 182° South 170 196 1,900 2,040 Climbing FlightAware
02:32PM 58.8200 5.6340 183° South 202 232 2,700 2,220 Climbing FlightAware
02:32PM 58.8090 5.6340 180° South 215 247 3,200 2,760 Climbing FlightAware
02:33PM 58.7870 5.6320 183° South 240 276 4,200 3,540 Climbing FlightAware
02:33PM 58.7590 5.6300 182° South 257 296 5,800 4,080 Climbing FlightAware
02:33PM 58.7420 5.6280 183° South 266 306 6,800 4,200 Climbing FlightAware
02:33PM 58.7190 5.6270 181° South 270 311 8,200 4,200 Climbing FlightAware
02:34PM 58.6870 5.6240 183° South 279 321 9,900 3,420 Climbing FlightAware
02:34PM 58.6440 5.6210 182° South 311 358 11,400 3,000 Climbing FlightAware
02:35PM 58.5940 5.6160 183° South 330 380 13,200 3,240 Climbing FlightAware
02:36PM 58.5410 5.5980 190° South 340 391 15,100 3,000 Climbing FlightAware
02:36PM 58.4850 5.5790 190° South 359 413 16,700 2,400 Climbing FlightAware
02:37PM 58.4240 5.5590 190° South 382 440 18,000 2,400 Climbing FlightAware
02:37PM 58.3600 5.5370 190° South 397 457 19,600 2,520 Climbing FlightAware
02:38PM 58.2980 5.5170 190° South 408 470 21,000 2,580 Climbing FlightAware
02:38PM 58.2390 5.4970 190° South 409 471 22,500 2,280 Climbing FlightAware
02:39PM 58.1620 5.4720 190° South 422 486 23,800 1,920 Climbing FlightAware
02:40PM 58.0960 5.4500 190° South 432 497 24,900 1,920 Climbing FlightAware
02:40PM 58.0240 5.4260 190° South 441 507 26,100 1,740 Climbing FlightAware
02:41PM 57.9590 5.4050 190° South 453 521 26,900 1,620 Climbing FlightAware
02:41PM 57.8850 5.3800 190° South 459 528 28,000 1,860 Climbing FlightAware
02:42PM 57.8040 5.3540 190° South 463 533 29,200 1,860 Climbing FlightAware
02:43PM 57.7370 5.3330 189° South 464 534 30,200 1,800 Climbing FlightAware
02:43PM 57.6620 5.3090 190° South 463 533 31,300 1,860 Climbing FlightAware
02:44PM 57.5890 5.2850 190° South 463 533 32,400 1,800 Climbing FlightAware
02:44PM 57.5220 5.2640 190° South 464 534 33,300 1,560 Climbing FlightAware
02:45PM 57.4470 5.2400 190° South 467 537 34,200 1,740 Climbing FlightAware
02:46PM 57.3660 5.2140 190° South 461 531 35,500 1,920 Climbing FlightAware
02:46PM 57.3000 5.1930 190° South 455 524 36,500 1,980 Climbing FlightAware
02:47PM 57.2270 5.1700 190° South 441 507 37,800 1,200 Climbing FlightAware
02:47PM 57.1550 5.1480 189° South 431 496 38,000 120 Climbing FlightAware
02:48PM 57.0850 5.1250 190° South 435 501 38,000  Level FlightAware
02:48PM 57.0130 5.1030 189° South 439 505 38,000  Level FlightAware
02:49PM 56.9420 5.0810 190° South 439 505 38,000  Level FlightAware
02:50PM 56.8860 5.0640 189° South 439 505 38,000  Level FlightAware
02:50PM 56.7940 5.0350 190° South 442 509 38,000  Level FlightAware
02:51PM 56.7290 5.0160 189° South 442 509 38,000  Level FlightAware
02:51PM 56.6600 4.9950 189° South 442 509 38,000  Level FlightAware
02:52PM 56.5820 4.9710 190° South 442 509 38,000 -120 Level FlightAware
02:53PM 56.5046 4.9484 190° South 1 1 37,900  Descending FlightAware UK
02:53PM 56.5080 4.9480 190° South 442 509 38,000 180 Climbing FlightAware
02:53PM 56.4410 4.9280 189° South 443 510 38,000  Level FlightAware
02:54PM 56.3650 4.9050 190° South 445 512 38,000  Level FlightAware
02:54PM 56.2960 4.8850 189° South 445 512 38,000  Level FlightAware
02:55PM 56.2200 4.8620 190° South 446 513 38,000  Level FlightAware
02:56PM 56.1570 4.8430 190° South 446 513 38,000  Level FlightAware
02:56PM 56.0800 4.8210 189° South 446 513 38,000  Level FlightAware
02:57PM 56.0170 4.8020 190° South 447 514 38,000  Level FlightAware
02:57PM 55.9450 4.7810 189° South 445 512 38,000  Level FlightAware
02:58PM 55.8820 4.7620 190° South 445 512 38,000  Level FlightAware
02:58PM 55.8122 4.7404 190° South 442 509 38,000  Level FlightAware UK
02:58PM 55.8060 4.7400 190° South 448 516 38,000  Level FlightAware
02:59PM 55.7320 4.7190 189° South 454 522 38,000  Level FlightAware
03:00PM 55.6470 4.6940 189° South 455 524 38,000  Level FlightAware
03:00PM 55.5680 4.6710 189° South 455 524 38,000  Level FlightAware
03:01PM 55.5023 4.6510 189° South 444 511 38,000  Level FlightAware UK
03:01PM 55.4840 4.6470 189° South 454 522 38,000  Level FlightAware
03:02PM 55.4070 4.6250 189° South 453 521 38,000  Level FlightAware
03:02PM 55.3490 4.6080 189° South 454 522 38,000  Level FlightAware
03:03PM 55.2657 4.5845 189° South 442 509 38,000  Level FlightAware UK
03:03PM 55.2540 4.5810 189° South 455 524 38,000  Level FlightAware
03:03PM 55.1820 4.5610 189° South 456 525 38,000  Level FlightAware
03:04PM 55.1100 4.5410 189° South 456 525 38,000  Level FlightAware
03:05PM 55.0450 4.5220 190° South 457 526 38,000  Level FlightAware
03:05PM 54.9630 4.4990 189° South 458 527 38,000  Level FlightAware
03:06PM 54.8890 4.4790 189° South 457 526 38,000  Level FlightAware
03:06PM 54.8160 4.4590 189° South 457 526 38,000  Level FlightAware
03:07PM 54.7430 4.4380 189° South 456 525 38,000  Level FlightAware
03:08PM 54.6652 4.4174 189° South 444 511 38,000  Level FlightAware UK
03:08PM 54.6730 4.4190 189° South 455 524 38,000  Level FlightAware
03:08PM 54.6000 4.3850 195° South 444 511 38,000  Level FlightAware
03:09PM 54.5420 4.3450 202° Southwest 429 494 38,000  Level FlightAware
03:09PM 54.4770 4.2880 207° Southwest 432 497 38,000  Level FlightAware
03:10PM 54.4140 4.2320 207° Southwest 433 498 38,000  Level FlightAware
03:10PM 54.3540 4.1770 208° Southwest 434 499 38,000  Level FlightAware
03:11PM 54.2920 4.1210 208° Southwest 434 499 38,000  Level FlightAware
03:12PM 54.2310 4.0670 207° Southwest 438 504 38,000  Level FlightAware
03:12PM 54.1630 4.0060 208° Southwest 440 506 38,000  Level FlightAware
03:13PM 54.1000 3.9500 208° Southwest 439 505 38,000 -600 Level FlightAware
03:13PM 54.0280 3.8860 208° Southwest 438 504 37,300 -1,140 Descending FlightAware
03:14PM 54.0137 3.8737 208° Southwest 448 516 37,200 -900 Descending FlightAware UK
03:14PM 53.9530 3.8200 207° Southwest 434 499 36,700 -1,020 Descending FlightAware
03:15PM 53.8942 3.7684 207° Southwest 452 520 36,100 -1,020 Descending FlightAware UK
03:15PM 53.8990 3.7720 207° Southwest 435 501 36,200 -240 Climbing FlightAware
03:15PM 53.8398 3.7206 207° Southwest 456 525 36,000 -360 Descending FlightAware UK
03:15PM 53.8360 3.7180 207° Southwest 438 504 36,000  Level FlightAware
03:16PM 53.7637 3.6539 207° Southwest 454 522 36,000  Level FlightAware UK
03:16PM 53.7660 3.6560 207° Southwest 445 512 36,000  Level FlightAware
03:17PM 53.6920 3.5920 207° Southwest 445 512 36,000  Level FlightAware
03:17PM 53.6300 3.5380 207° Southwest 446 513 36,000  Level FlightAware
03:18PM 53.5630 3.4800 207° Southwest 446 513 36,000  Level FlightAware
03:18PM 53.4990 3.4250 207° Southwest 445 512 36,000  Level FlightAware
03:19PM 53.4390 3.3730 207° Southwest 445 512 36,000  Level FlightAware
03:20PM 53.3570 3.3040 207° Southwest 445 512 36,000  Level FlightAware
03:20PM 53.2930 3.2490 207° Southwest 445 512 36,000  Level FlightAware
03:21PM 53.2250 3.1910 207° Southwest 447 514 36,000  Level FlightAware
03:21PM 53.1660 3.1410 207° Southwest 447 514 36,000  Level FlightAware
03:22PM 53.1010 3.0860 207° Southwest 447 514 36,000  Level FlightAware
03:22PM 53.0480 3.0410 207° Southwest 447 514 36,000 -480 Level FlightAware
03:23PM 52.9719 2.9779 207° Southwest 454 522 35,500 -780 Descending FlightAware UK
03:23PM 52.9720 2.9780 207° Southwest 446 513 35,500 -1,320 Level FlightAware
03:24PM 52.9090 2.9250 207° Southwest 438 504 34,700 -1,440 Descending FlightAware
03:24PM 52.8440 2.8720 206° Southwest 448 516 33,800 -1,560 Descending FlightAware
03:25PM 52.7770 2.8160 207° Southwest 450 518 32,900 -1,500 Descending FlightAware
03:25PM 52.7200 2.7690 207° Southwest 452 520 32,200 -1,440 Descending FlightAware
03:26PM 52.6540 2.7150 206° Southwest 453 521 31,300 -1,380 Descending FlightAware
03:27PM 52.5810 2.6490 209° Southwest 448 516 30,500 -1,140 Descending FlightAware
03:27PM 52.5250 2.5860 214° Southwest 452 520 30,000 -480 Descending FlightAware
03:28PM 52.4650 2.5180 215° Southwest 454 522 30,000  Level FlightAware
03:28PM 52.4030 2.4470 215° Southwest 452 520 30,000  Level FlightAware
03:29PM 52.3230 2.3550 215° Southwest 460 529 30,000  Level FlightAware
03:29PM 52.3088 2.3377 217° Southwest 459 528 30,000  Level FlightAware ADS-B
03:30PM 52.2543 2.2626 217° Southwest 470 541 30,000  Level FlightAware UK
03:30PM 52.2190 2.2150 217° Southwest 449 517 30,000  Level FlightAware
03:30PM 52.1971 2.1852 220° Southwest 456 525 30,000  Level FlightAware ADS-B
03:31PM 52.1469 2.1168 220° Southwest 472 543 30,000  Level FlightAware UK
03:31PM 52.1349 2.1011 220° Southwest 457 526 30,000 -840 Level FlightAware ADS-B
03:32PM 52.0775 2.0276 218° Southwest 454 522 29,400 -1,560 Descending FlightAware ADS-B
03:32PM 51.9890 1.9150 218° Southwest 449 517 27,700 -1,980 Descending FlightAware
03:33PM 51.9356 1.8483 218° Southwest 431 496 26,600 -1,980 Descending FlightAware ADS-B
03:34PM 51.8861 1.7859 218° Southwest 415 478 25,600 -2,040 Descending FlightAware ADS-B
03:34PM 51.8232 1.7069 218° Southwest 398 458 24,100 -2,100 Descending FlightAware ADS-B
03:35PM 51.7794 1.6515 218° Southwest 386 444 23,100 -1,980 Descending FlightAware ADS-B
03:35PM 51.7676 1.6326 225° Southwest 380 437 22,800 -1,920 Descending FlightAware ADS-B
03:35PM 51.7609 1.6189 232° Southwest 377 434 22,600 -2,040 Descending FlightAware ADS-B
03:35PM 51.7534 1.5990 239° Southwest 373 429 22,300 -2,040 Descending FlightAware ADS-B
03:35PM 51.7475 1.5750 248° West 367 422 22,000 -2,160 Descending FlightAware ADS-B
03:35PM 51.7448 1.5555 257° West 361 415 21,700 -2,040 Descending FlightAware ADS-B
03:36PM 51.7389 1.4708 264° West 357 411 20,700 -1,920 Descending FlightAware ADS-B
03:36PM 51.7333 1.3889 264° West 353 406 19,700 -2,040 Descending FlightAware ADS-B
03:37PM 51.7278 1.3047 264° West 368 423 18,600 -1,980 Descending FlightAware UK
03:37PM 51.7280 1.3080 264° West 343 395 18,600 -2,160 Level FlightAware (KMIA)
03:37PM 51.7252 1.2651 264° West 341 392 18,000 -2,160 Descending FlightAware ADS-B
03:38PM 51.7202 1.1882 264° West 336 387 17,000 -1,920 Descending FlightAware ADS-B
03:38PM 51.7150 1.1109 264° West 331 381 16,000 -1,560 Descending FlightAware ADS-B
03:39PM 51.7075 1.0012 264° West 320 368 15,000 -780 Descending FlightAware ADS-B
03:40PM 51.7020 0.9221 264° West 323 372 15,000 -300 Level FlightAware ADS-B
03:40PM 51.6971 0.8505 264° West 312 359 14,700 -780 Descending FlightAware ADS-B
03:41PM 51.6919 0.7762 264° West 307 353 14,200 -900 Descending FlightAware ADS-B
03:41PM 51.6872 0.7082 264° West 296 341 13,800 -840 Descending FlightAware ADS-B
03:42PM 51.6826 0.6446 263° West 277 319 13,400 -840 Descending FlightAware ADS-B
03:42PM 51.6782 0.5834 263° West 262 302 13,000 -900 Descending FlightAware ADS-B
03:43PM 51.6741 0.5258 263° West 254 292 12,500 -1,200 Descending FlightAware ADS-B
03:43PM 51.6700 0.4688 263° West 251 289 11,800 -1,320 Descending FlightAware ADS-B
03:44PM 51.6659 0.4134 263° West 247 284 11,200 -1,200 Descending FlightAware ADS-B
03:44PM 51.6619 0.3588 263° West 245 282 10,600 -1,320 Descending FlightAware ADS-B
03:45PM 51.6584 0.3104 263° West 246 283 10,000 -1,440 Descending FlightAware ADS-B
03:45PM 51.6562 0.2826 263° West 249 287 9,600 -1,500 Descending FlightAware ADS-B
03:45PM 51.6539 0.2522 263° West 247 284 9,200 -1,200 Descending FlightAware ADS-B
03:45PM 51.6521 0.2286 263° West 246 283 9,000 -1,200 Descending FlightAware ADS-B
03:46PM 51.6503 0.2036 263° West 245 282 8,700 -1,080 Descending FlightAware ADS-B
03:46PM 51.6481 0.1757 263° West 246 283 8,500 -600 Descending FlightAware ADS-B
03:46PM 51.6460 0.1476 263° West 244 281 8,400 -480 Descending FlightAware ADS-B
03:46PM 51.6449 0.1289 265° West 244 281 8,300 -480 Descending FlightAware ADS-B
03:47PM 51.6442 0.1011 268° West 243 280 8,200 -420 Descending FlightAware ADS-B
03:47PM 51.6438 0.0756 269° West 241 277 8,100 -660 Descending FlightAware ADS-B
03:47PM 51.6433 0.0487 268° West 240 276 7,900 -780 Descending FlightAware ADS-B
03:47PM 51.6428 0.0169 269° West 236 272 7,700 -720 Descending FlightAware ADS-B
03:48PM 51.6423 -0.0104 268° West 235 270 7,500 -780 Descending FlightAware ADS-B
03:48PM 51.6419 -0.0379 269° West 234 269 7,300 -780 Descending FlightAware ADS-B
03:48PM 51.6416 -0.0655 269° West 235 270 7,100 -600 Descending FlightAware ADS-B
03:48PM 51.6413 -0.0923 269° West 236 272 7,000 -240 Descending FlightAware ADS-B
03:49PM 51.6411 -0.1191 269° West 238 274 7,000  Level FlightAware ADS-B
03:49PM 51.6407 -0.1488 269° West 238 274 7,000  Level FlightAware ADS-B
03:49PM 51.6405 -0.1756 269° West 237 273 7,000  Level FlightAware ADS-B
03:49PM 51.6402 -0.1935 268° West 235 270 7,000  Level FlightAware ADS-B
03:49PM 51.6398 -0.2004 265° West 235 270 7,000  Level FlightAware ADS-B
03:50PM 51.6391 -0.2065 260° West 234 269 7,000  Level FlightAware ADS-B
03:50PM 51.6380 -0.2115 250° West 234 269 7,000  Level FlightAware ADS-B
03:50PM 51.6355 -0.2195 243° Southwest 233 268 7,000  Level FlightAware ADS-B
03:50PM 51.6330 -0.2248 233° Southwest 235 270 7,000  Level FlightAware ADS-B
03:50PM 51.6301 -0.2295 225° Southwest 236 272 7,000  Level FlightAware ADS-B
03:50PM 51.6262 -0.2340 216° Southwest 237 273 7,000  Level FlightAware ADS-B
03:50PM 51.6225 -0.2371 208° Southwest 238 274 7,000  Level FlightAware ADS-B
03:50PM 51.6174 -0.2398 198° South 241 277 7,000  Level FlightAware ADS-B
03:50PM 51.6122 -0.2411 189° South 242 278 7,000  Level FlightAware ADS-B
03:50PM 51.6065 -0.2409 179° South 244 281 7,000  Level FlightAware ADS-B
03:50PM 51.6010 -0.2390 168° South 247 284 7,000  Level FlightAware ADS-B
03:50PM 51.5969 -0.2367 160° South 249 287 7,000 -900 Level FlightAware ADS-B
03:50PM 51.5931 -0.2336 154° Southeast 251 289 6,900 -1,500 Descending FlightAware ADS-B
03:50PM 51.5895 -0.2296 146° Southeast 253 291 6,800 -720 Descending FlightAware ADS-B
03:51PM 51.5850 -0.2231 138° Southeast 254 292 6,800 -600 Level FlightAware ADS-B
03:51PM 51.5815 -0.2160 128° Southeast 253 291 6,700 -1,500 Descending FlightAware ADS-B
03:51PM 51.5796 -0.2108 121° Southeast 253 291 6,600 -1,500 Descending FlightAware ADS-B
03:51PM 51.5773 -0.2022 113° Southeast 253 291 6,500 -600 Descending FlightAware ADS-B
03:51PM 51.5753 -0.1930 109° East 250 288 6,500 -660 Level FlightAware ADS-B
03:51PM 51.5708 -0.1693 107° East 250 288 6,300 -840 Descending FlightAware ADS-B
03:51PM 51.5658 -0.1419 106° East 247 284 6,100 -600 Descending FlightAware ADS-B
03:52PM 51.5610 -0.1156 106° East 235 270 6,000 -420 Descending FlightAware ADS-B
03:52PM 51.5564 -0.0898 106° East 223 257 5,900 -420 Descending FlightAware ADS-B
03:52PM 51.5521 -0.0661 106° East 216 249 5,800 -600 Descending FlightAware ADS-B
03:52PM 51.5478 -0.0426 106° East 211 243 5,600 -540 Descending FlightAware ADS-B
03:52PM 51.5456 -0.0325 109° East 204 235 5,600 -600 Level FlightAware ADS-B
03:53PM 51.5440 -0.0275 117° Southeast 202 232 5,500 -600 Descending FlightAware ADS-B
03:53PM 51.5406 -0.0208 129° Southeast 199 229 5,500 -540 Level FlightAware ADS-B
03:53PM 51.5361 -0.0154 143° Southeast 196 226 5,400 -1,020 Descending FlightAware ADS-B
03:53PM 51.5307 -0.0122 160° South 196 226 5,300 -1,140 Descending FlightAware ADS-B
03:53PM 51.5266 -0.0111 171° South 195 224 5,200 -1,140 Descending FlightAware ADS-B
03:53PM 51.5210 -0.0106 177° South 196 226 5,100 -900 Descending FlightAware ADS-B
03:53PM 51.5083 -0.0108 180° South 199 229 4,900 -1,020 Descending FlightAware ADS-B
03:53PM 51.5046 -0.0120 192° South 199 229 4,800 -1,500 Descending FlightAware ADS-B
03:53PM 51.5013 -0.0142 202° Southwest 200 230 4,700 -900 Descending FlightAware ADS-B
03:53PM 51.4987 -0.0166 210° Southwest 199 229 4,700 -900 Level FlightAware ADS-B
03:54PM 51.4960 -0.0202 220° Southwest 200 230 4,600 -720 Descending FlightAware ADS-B
03:54PM 51.4931 -0.0256 229° Southwest 199 229 4,600 -600 Level FlightAware ADS-B
03:54PM 51.4901 -0.0326 236° Southwest 198 228 4,500 -480 Descending FlightAware ADS-B
03:54PM 51.4863 -0.0420 237° Southwest 200 230 4,500 -480 Level FlightAware ADS-B
03:54PM 51.4840 -0.0497 244° Southwest 199 229 4,400 -1,380 Descending FlightAware ADS-B
03:54PM 51.4831 -0.0539 251° West 200 230 4,300 -780 Descending FlightAware ADS-B
03:54PM 51.4816 -0.0616 253° West 199 229 4,300 -600 Level FlightAware ADS-B
03:54PM 51.4806 -0.0684 257° West 198 228 4,200 -1,200 Descending FlightAware ADS-B
03:54PM 51.4799 -0.0748 260° West 197 227 4,100 -1,500 Descending FlightAware ADS-B
03:54PM 51.4796 -0.0800 265° West 196 226 4,000 -1,020 Descending FlightAware ADS-B
03:54PM 51.4790 -0.0920 265° West 193 222 3,900 -1,020 Descending FlightAware ADS-B
03:55PM 51.4786 -0.1057 267° West 193 222 3,700 -1,200 Descending FlightAware ADS-B
03:55PM 51.4783 -0.1293 269° West 192 221 3,400 -1,140 Descending FlightAware ADS-B
03:55PM 51.4783 -0.1516 270° West 189 217 3,100 -1,200 Descending FlightAware ADS-B
03:55PM 51.4783 -0.1732 270° West 186 214 2,800 -1,020 Descending FlightAware ADS-B
03:56PM 51.4782 -0.1936 270° West 182 209 2,600 -960 Descending FlightAware ADS-B
03:56PM 51.4782 -0.2165 270° West 175 201 2,300 -960 Descending FlightAware ADS-B
03:56PM 51.4782 -0.2505 270° West 171 197 1,900 -900 Descending FlightAware ADS-B
03:57PM 51.4780 -0.2910 270° West 162 186 1,400 -840 Descending FlightAware (KMIA)
03:57PM 51.4780 -0.3100 270° West 153 176 1,200 -780 Descending FlightAware (KMIA)
03:57PM 51.4780 -0.3290 270° West 135 155 1,000 -660 Descending FlightAware
03:58PM 51.4780 -0.3470 270° West 117 135 800 -600 Descending FlightAware
03:58PM 51.4780 -0.3740 270° West 114 131 500 -600 Descending FlightAware
03:59PM 51.4780 -0.3910 270° West 117 135 300 -600 Descending FlightAware
03:59PM 51.4780 -0.4080 270° West 117 135 100 -600 Descending FlightAware
03:59PM 51.4780 -0.4200 270° West 118 136 -360 Descending FlightAware
04:00PM 51.4780 -0.4230 270° West 119 137  Level FlightAware
04:00PM 51.4780 -0.4420 270° West 119 137  Level FlightAware